timestamp,wind_dir_avg,wind_spd_max_dir,wind_spd_avg,wind_spd_gust,battery_voltage,lat,long
2018-06-26 00:00:00+00:00,74.0,76.0,13.93,15.54,,47.59359,-54.27349
2018-06-26 00:10:00+00:00,73.0,76.0,13.65,15.65,,47.59359,-54.27349
2018-06-26 00:20:00+00:00,72.0,71.0,12.6,14.87,,47.59359,-54.27349
2018-06-26 00:30:00+00:00,74.0,75.0,13.25,15.76,,47.59359,-54.27349
2018-06-26 00:40:00+00:00,76.0,79.0,12.63,15.97,,47.59359,-54.27349
2018-06-26 00:50:00+00:00,70.0,65.0,14.07,15.69,,47.59359,-54.27349
2018-06-26 01:00:00+00:00,72.0,74.0,13.41,16.26,,47.59359,-54.27349
2018-06-26 01:10:00+00:00,71.0,74.0,12.93,14.7,,47.59359,-54.27349
2018-06-26 01:20:00+00:00,71.0,76.0,13.12,15.43,,47.59359,-54.27349
2018-06-26 01:30:00+00:00,66.0,67.0,13.4,15.5,,47.59359,-54.27349
2018-06-26 01:40:00+00:00,66.0,68.0,13.67,15.13,,47.59359,-54.27349
2018-06-26 01:50:00+00:00,68.0,73.0,12.81,14.43,,47.59359,-54.27349
2018-06-26 02:00:00+00:00,67.0,72.0,13.15,17.08,,47.59359,-54.27349
2018-06-26 02:10:00+00:00,63.0,65.0,13.62,16.61,,47.59359,-54.27349
2018-06-26 02:20:00+00:00,67.0,66.0,14.53,17.13,,47.59359,-54.27349
2018-06-26 02:30:00+00:00,67.0,70.0,15.05,16.85,,47.59359,-54.27349
2018-06-26 02:40:00+00:00,67.0,73.0,14.6,16.78,,47.59359,-54.27349
2018-06-26 02:50:00+00:00,66.0,59.0,13.55,16.94,,47.59359,-54.27349
2018-06-26 03:00:00+00:00,69.0,69.0,13.82,15.97,,47.59359,-54.27349
2018-06-26 03:10:00+00:00,70.0,71.0,14.67,17.75,,47.59359,-54.27349
2018-06-26 03:20:00+00:00,72.0,71.0,16.28,18.76,,47.59359,-54.27349
2018-06-26 03:30:00+00:00,71.0,77.0,17.33,19.77,,47.59359,-54.27349
2018-06-26 03:40:00+00:00,72.0,73.0,16.16,19.47,,47.59359,-54.27349
2018-06-26 03:50:00+00:00,72.0,70.0,14.08,16.76,,47.59359,-54.27349
2018-06-26 04:00:00+00:00,71.0,71.0,15.27,17.72,,47.59359,-54.27349
2018-06-26 04:10:00+00:00,72.0,71.0,15.49,18.69,,47.59359,-54.27349
2018-06-26 04:20:00+00:00,71.0,70.0,16.01,18.01,,47.59359,-54.27349
2018-06-26 04:30:00+00:00,73.0,70.0,14.73,17.46,,47.59359,-54.27349
2018-06-26 04:40:00+00:00,73.0,78.0,15.79,18.1,,47.59359,-54.27349
2018-06-26 04:50:00+00:00,72.0,69.0,15.44,19.35,,47.59359,-54.27349
2018-06-26 05:00:00+00:00,74.0,78.0,15.83,19.41,,47.59359,-54.27349
2018-06-26 05:10:00+00:00,69.0,69.0,18.18,21.11,,47.59359,-54.27349
2018-06-26 05:20:00+00:00,68.0,71.0,17.35,20.02,,47.59359,-54.27349
2018-06-26 05:30:00+00:00,67.0,67.0,17.24,20.54,,47.59359,-54.27349
2018-06-26 05:40:00+00:00,69.0,69.0,16.44,18.5,,47.59359,-54.27349
2018-06-26 05:50:00+00:00,70.0,70.0,19.9,22.81,,47.59359,-54.27349
2018-06-26 06:00:00+00:00,71.0,72.0,16.39,19.62,,47.59359,-54.27349
2018-06-26 06:10:00+00:00,69.0,70.0,15.69,17.77,,47.59359,-54.27349
2018-06-26 06:20:00+00:00,70.0,73.0,15.8,18.2,,47.59359,-54.27349
2018-06-26 06:30:00+00:00,73.0,73.0,15.65,19.76,,47.59359,-54.27349
2018-06-26 06:40:00+00:00,72.0,72.0,16.62,20.29,,47.59359,-54.27349
2018-06-26 06:50:00+00:00,68.0,67.0,15.29,18.01,,47.59359,-54.27349
2018-06-26 07:00:00+00:00,67.0,68.0,17.99,20.99,,47.59359,-54.27349
2018-06-26 07:10:00+00:00,72.0,73.0,17.12,21.45,,47.59359,-54.27349
2018-06-26 07:20:00+00:00,71.0,72.0,16.87,19.54,,47.59359,-54.27349
2018-06-26 07:30:00+00:00,73.0,73.0,17.21,20.21,,47.59359,-54.27349
2018-06-26 07:40:00+00:00,70.0,70.0,18.07,19.73,,47.59359,-54.27349
2018-06-26 07:50:00+00:00,69.0,64.0,17.75,20.14,,47.59359,-54.27349
2018-06-26 08:00:00+00:00,66.0,73.0,18.71,21.88,,47.59359,-54.27349
2018-06-26 08:10:00+00:00,74.0,79.0,17.34,20.56,,47.59359,-54.27349
2018-06-26 08:20:00+00:00,74.0,77.0,19.23,21.58,,47.59359,-54.27349
2018-06-26 08:30:00+00:00,72.0,70.0,18.02,21.74,,47.59359,-54.27349
2018-06-26 08:40:00+00:00,70.0,68.0,17.64,19.77,,47.59359,-54.27349
2018-06-26 08:50:00+00:00,72.0,75.0,18.71,21.66,,47.59359,-54.27349
2018-06-26 09:00:00+00:00,73.0,73.0,18.45,21.89,,47.59359,-54.27349
2018-06-26 09:10:00+00:00,73.0,76.0,16.69,19.68,,47.59359,-54.27349
2018-06-26 09:20:00+00:00,72.0,76.0,18.32,20.8,,47.59359,-54.27349
2018-06-26 09:30:00+00:00,72.0,70.0,16.9,20.81,,47.59359,-54.27349
2018-06-26 09:40:00+00:00,76.0,81.0,20.99,23.7,,47.59359,-54.27349
2018-06-26 09:50:00+00:00,71.0,69.0,16.17,20.33,,47.59359,-54.27349
2018-06-26 10:00:00+00:00,72.0,74.0,20.67,23.01,,47.59359,-54.27349
2018-06-26 10:10:00+00:00,74.0,71.0,17.48,20.21,,47.59359,-54.27349
2018-06-26 10:20:00+00:00,73.0,77.0,17.52,21.56,,47.59359,-54.27349
2018-06-26 10:30:00+00:00,76.0,78.0,16.56,20.15,,47.59359,-54.27349
2018-06-26 10:40:00+00:00,73.0,77.0,18.75,21.95,,47.59359,-54.27349
2018-06-26 10:50:00+00:00,71.0,65.0,19.66,22.59,,47.59359,-54.27349
2018-06-26 11:00:00+00:00,73.0,74.0,20.78,23.8,,47.59359,-54.27349
2018-06-26 11:10:00+00:00,73.0,78.0,16.75,19.01,,47.59359,-54.27349
2018-06-26 11:20:00+00:00,69.0,65.0,19.85,23.36,,47.59359,-54.27349
2018-06-26 11:30:00+00:00,72.0,79.0,18.06,22.69,,47.59359,-54.27349
2018-06-26 11:40:00+00:00,71.0,69.0,18.19,23.34,,47.59359,-54.27349
2018-06-26 11:50:00+00:00,68.0,60.0,20.85,26.12,,47.59359,-54.27349
2018-06-26 12:00:00+00:00,70.0,74.0,19.76,22.89,,47.59359,-54.27349
2018-06-26 12:10:00+00:00,71.0,74.0,18.76,21.46,,47.59359,-54.27349
2018-06-26 12:20:00+00:00,71.0,76.0,17.34,21.88,,47.59359,-54.27349
2018-06-26 12:30:00+00:00,71.0,75.0,16.69,20.22,,47.59359,-54.27349
2018-06-26 12:40:00+00:00,69.0,64.0,17.71,22.56,,47.59359,-54.27349
2018-06-26 12:50:00+00:00,69.0,70.0,19.79,22.12,,47.59359,-54.27349
2018-06-26 13:00:00+00:00,70.0,72.0,18.42,22.21,,47.59359,-54.27349
2018-06-26 13:10:00+00:00,69.0,67.0,20.05,22.15,,47.59359,-54.27349
2018-06-26 13:20:00+00:00,65.0,69.0,18.92,22.83,,47.59359,-54.27349
2018-06-26 13:30:00+00:00,67.0,63.0,17.97,21.49,,47.59359,-54.27349
2018-06-26 13:40:00+00:00,67.0,71.0,20.44,23.18,,47.59359,-54.27349
2018-06-26 13:50:00+00:00,70.0,69.0,19.11,22.75,,47.59359,-54.27349
2018-06-26 14:00:00+00:00,72.0,73.0,18.3,23.14,,47.59359,-54.27349
2018-06-26 14:10:00+00:00,70.0,77.0,20.05,23.23,,47.59359,-54.27349
2018-06-26 14:20:00+00:00,71.0,73.0,18.67,22.18,,47.59359,-54.27349
2018-06-26 14:30:00+00:00,68.0,65.0,21.13,26.88,,47.59359,-54.27349
2018-06-26 14:40:00+00:00,62.0,66.0,21.87,26.14,,47.59359,-54.27349
2018-06-26 14:50:00+00:00,56.0,64.0,23.04,26.04,,47.59359,-54.27349
2018-06-26 15:00:00+00:00,53.0,53.0,20.47,23.72,,47.59359,-54.27349
2018-06-26 15:10:00+00:00,56.0,60.0,18.01,23.73,,47.59359,-54.27349
2018-06-26 15:20:00+00:00,65.0,69.0,17.03,22.96,,47.59359,-54.27349
2018-06-26 15:30:00+00:00,65.0,65.0,16.73,20.45,,47.59359,-54.27349
2018-06-26 15:40:00+00:00,65.0,69.0,17.64,21.32,,47.59359,-54.27349
2018-06-26 15:50:00+00:00,63.0,69.0,15.52,17.81,,47.59359,-54.27349
2018-06-26 16:00:00+00:00,63.0,67.0,18.65,21.33,,47.59359,-54.27349
2018-06-26 16:10:00+00:00,62.0,61.0,18.18,21.8,,47.59359,-54.27349
2018-06-26 16:20:00+00:00,62.0,60.0,17.92,21.92,,47.59359,-54.27349
2018-06-26 16:30:00+00:00,60.0,61.0,18.71,24.26,,47.59359,-54.27349
2018-06-26 16:40:00+00:00,59.0,61.0,17.37,19.99,,47.59359,-54.27349
2018-06-26 16:50:00+00:00,54.0,52.0,15.94,17.89,,47.59359,-54.27349
2018-06-26 17:00:00+00:00,50.0,50.0,14.98,17.58,,47.59359,-54.27349
2018-06-26 17:10:00+00:00,47.0,53.0,16.25,19.12,,47.59359,-54.27349
2018-06-26 17:20:00+00:00,45.0,46.0,16.78,18.91,,47.59359,-54.27349
2018-06-26 17:30:00+00:00,43.0,42.0,16.14,21.17,,47.59359,-54.27349
2018-06-26 17:40:00+00:00,44.0,47.0,16.44,18.1,,47.59359,-54.27349
2018-06-26 17:50:00+00:00,44.0,39.0,16.55,19.08,,47.59359,-54.27349
2018-06-26 18:00:00+00:00,44.0,42.0,17.64,21.09,,47.59359,-54.27349
2018-06-26 18:10:00+00:00,45.0,49.0,17.96,21.33,,47.59359,-54.27349
2018-06-26 18:20:00+00:00,41.0,37.0,16.83,20.43,,47.59359,-54.27349
2018-06-26 18:30:00+00:00,45.0,41.0,17.48,20.41,,47.59359,-54.27349
2018-06-26 18:40:00+00:00,41.0,42.0,19.08,21.9,,47.59359,-54.27349
2018-06-26 18:50:00+00:00,41.0,41.0,18.19,20.25,,47.59359,-54.27349
2018-06-26 19:00:00+00:00,45.0,52.0,15.86,20.19,,47.59359,-54.27349
2018-06-26 19:10:00+00:00,45.0,46.0,14.44,16.84,,47.59359,-54.27349
2018-06-26 19:20:00+00:00,35.0,28.0,15.72,21.17,,47.59359,-54.27349
2018-06-26 19:30:00+00:00,41.0,45.0,19.23,23.88,,47.59359,-54.27349
2018-06-26 19:40:00+00:00,43.0,50.0,17.14,19.77,,47.59359,-54.27349
2018-06-26 19:50:00+00:00,42.0,49.0,16.38,20.56,,47.59359,-54.27349
2018-06-26 20:00:00+00:00,40.0,38.0,20.86,24.28,,47.59359,-54.27349
2018-06-26 20:10:00+00:00,35.0,34.0,18.76,21.31,,47.59359,-54.27349
2018-06-26 20:20:00+00:00,34.0,38.0,18.2,20.85,,47.59359,-54.27349
2018-06-26 20:30:00+00:00,34.0,39.0,17.31,20.4,,47.59359,-54.27349
2018-06-26 20:40:00+00:00,34.0,37.0,15.57,20.28,,47.59359,-54.27349
2018-06-26 20:50:00+00:00,32.0,37.0,18.06,20.86,,47.59359,-54.27349
2018-06-26 21:00:00+00:00,28.0,35.0,17.0,20.66,,47.59359,-54.27349
2018-06-26 21:10:00+00:00,27.0,31.0,18.92,21.85,,47.59359,-54.27349
2018-06-26 21:20:00+00:00,22.0,29.0,16.05,19.95,,47.59359,-54.27349
2018-06-26 21:30:00+00:00,24.0,25.0,15.79,20.08,,47.59359,-54.27349
2018-06-26 21:40:00+00:00,26.0,26.0,15.46,17.88,,47.59359,-54.27349
2018-06-26 21:50:00+00:00,22.0,12.0,15.03,17.28,,47.59359,-54.27349
2018-06-26 22:00:00+00:00,26.0,23.0,16.48,20.31,,47.59359,-54.27349
2018-06-26 22:10:00+00:00,22.0,24.0,14.33,18.32,,47.59359,-54.27349
2018-06-26 22:20:00+00:00,16.0,17.0,17.64,20.16,,47.59359,-54.27349
2018-06-26 22:30:00+00:00,19.0,16.0,15.06,19.34,,47.59359,-54.27349
2018-06-26 22:40:00+00:00,16.0,17.0,16.11,20.31,,47.59359,-54.27349
2018-06-26 22:50:00+00:00,16.0,12.0,14.99,17.27,,47.59359,-54.27349
2018-06-26 23:00:00+00:00,13.0,7.0,15.99,19.34,,47.59359,-54.27349
2018-06-26 23:10:00+00:00,18.0,17.0,16.01,20.33,,47.59359,-54.27349
2018-06-26 23:20:00+00:00,14.0,18.0,17.17,22.81,,47.59359,-54.27349
2018-06-26 23:30:00+00:00,17.0,32.0,17.51,20.75,,47.59359,-54.27349
2018-06-26 23:40:00+00:00,15.0,13.0,15.29,18.44,,47.59359,-54.27349
2018-06-26 23:50:00+00:00,15.0,13.0,18.51,22.32,,47.59359,-54.27349
